Dunkirk, NY

1:29 PM EST on February 27, 2017 (GMT -0500)
Chautauqua County-Dunkirk

Weather History for KDKK - August, 2013

Change the Weather History Date:

Saturday, August 31, 2013

  Actual Average Record
Temperature  
Mean Temperature 74 °F -  
Max Temperature 81 °F 78 °F 98 °F (1951)
Min Temperature 68 °F 58 °F 44 °F (1976)
Cooling Degree Days 10    
Growing Degree Days 24 (Base 50)    
Moisture  
Dew Point 67 °F    
Average Humidity 80    
Maximum Humidity 94    
Minimum Humidity 62    
Precipitation  
Precipitation 0.01 in - - ()
Sea Level Pressure  
Sea Level Pressure 29.79 in    
Wind  
Wind Speed 10 mph (SW)    
Max Wind Speed 17 mph    
Max Gust Speed 17 mph    
Visibility 9 miles    
Events Rain , Thunderstorm    
Averages and records for this station are not official NWS values.
T = Trace of Precipitation, MM = Missing Value Source: NWS Daily Summary

Daily Weather History Graph

Daily Weather History Graph

Search for Another Location

Airport or City:

Trip Planner

Search our weather history database for the weather conditions in past years. The results will help you decide how hot, cold, wet, or windy it might be!

Date:

Astronomy

Aug. 31, 2013 Rise Set
Actual Time 6:41 AM EDT 7:52 PM EDT
Civil Twilight 6:12 AM EDT 8:21 PM EDT
Nautical Twilight 5:37 AM EDT 8:56 PM EDT
Astronomical Twilight 5:00 AM EDT 9:32 PM EDT
Moon 2:05 AM EDT (8/31) 4:52 PM EDT (8/31)
Length of Visible Light 14h 09m
Length of Day
13h 11m
Waning Crescent, 21% of the Moon is Illuminated
Aug 31
Waning Crescent
Sep 5
New
Sep 12
First Quarter
Sep 19
Full
Sep 26
Last Quarter

Hourly Weather History & Observations

Time (EDT) Temp. Heat Index Dew Point Humidity Pressure Visibility Wind Dir Wind Speed Gust Speed Precip Events Conditions
12:11 AM 75.2 °F - 66.2 °F 73% 29.76 in 10.0 mi South 16.1 mph - N/A Thunderstorm Scattered Clouds
12:23 AM 75.2 °F - 66.2 °F 73% 29.77 in 10.0 mi SSW 17.3 mph - N/A Thunderstorm Thunderstorm
12:44 AM 75.2 °F - 66.2 °F 73% 29.77 in 10.0 mi SW 8.1 mph 17.3 mph N/A   Scattered Clouds
12:53 AM 75.9 °F - 66.0 °F 71% 29.77 in 10.0 mi West 10.4 mph 17.3 mph N/A   Scattered Clouds
1:03 AM 75.2 °F - 66.2 °F 73% 29.80 in 10.0 mi West 10.4 mph - N/A Thunderstorm Mostly Cloudy
1:46 AM 73.4 °F - 69.8 °F 88% 29.78 in 9.0 mi SSW 9.2 mph - 0.01 in Rain Light Rain
1:53 AM 75.0 °F - 69.1 °F 82% 29.77 in 9.0 mi WSW 3.5 mph - 0.01 in   Overcast
2:53 AM 71.1 °F - 69.1 °F 93% 29.75 in 6.0 mi SW 5.8 mph - N/A   Scattered Clouds
3:53 AM 73.0 °F - 66.9 °F 81% 29.74 in 9.0 mi SSW 13.8 mph - N/A   Scattered Clouds
4:53 AM 73.0 °F - 66.9 °F 81% 29.74 in 9.0 mi SSW 15.0 mph - N/A   Scattered Clouds
5:53 AM 73.0 °F - 68.0 °F 84% 29.74 in 8.0 mi SSW 10.4 mph - N/A   Partly Cloudy
6:08 AM 73.4 °F - 68.0 °F 83% 29.76 in 8.0 mi SSW 10.4 mph - N/A   Mostly Cloudy
6:53 AM 73.0 °F - 68.0 °F 84% 29.75 in 7.0 mi SW 4.6 mph - N/A   Overcast
7:53 AM 73.0 °F - 68.0 °F 84% 29.77 in 6.0 mi Calm Calm - N/A   Haze
8:45 AM 73.4 °F - 69.8 °F 88% 29.80 in 6.0 mi SSW 10.4 mph - N/A   Overcast
8:53 AM 73.0 °F - 69.1 °F 87% 29.78 in 6.0 mi SSW 11.5 mph - N/A   Overcast
9:53 AM 73.0 °F - 68.0 °F 84% 29.80 in 10.0 mi West 10.4 mph - N/A   Overcast
10:53 AM 73.0 °F - 68.0 °F 84% 29.81 in 10.0 mi West 9.2 mph - N/A   Overcast
11:53 AM 73.9 °F - 68.0 °F 82% 29.82 in 10.0 mi West 11.5 mph - N/A   Overcast
12:46 PM 75.2 °F - 66.2 °F 73% 29.82 in 10.0 mi WSW 4.6 mph - N/A   Overcast
12:53 PM 75.0 °F - 66.9 °F 76% 29.81 in 10.0 mi SW 5.8 mph 16.1 mph N/A   Overcast
1:53 PM 78.1 °F - 66.9 °F 68% 29.81 in 10.0 mi West 9.2 mph 17.3 mph N/A   Scattered Clouds
2:53 PM 80.1 °F 82.1 °F 66.0 °F 62% 29.80 in 10.0 mi SW 9.2 mph - N/A   Clear
3:53 PM 79.0 °F - 64.9 °F 62% 29.79 in 10.0 mi West 9.2 mph - N/A   Partly Cloudy
4:53 PM 78.1 °F - 66.0 °F 66% 29.79 in 10.0 mi WSW 4.6 mph - N/A   Overcast
5:53 PM 78.1 °F - 66.0 °F 66% 29.80 in 10.0 mi West 6.9 mph - N/A   Mostly Cloudy
6:53 PM 75.0 °F - 68.0 °F 79% 29.79 in 10.0 mi West 11.5 mph - N/A   Overcast
7:53 PM 73.0 °F - 68.0 °F 84% 29.80 in 10.0 mi SSW 6.9 mph - N/A   Partly Cloudy
8:53 PM 72.0 °F - 69.1 °F 91% 29.82 in 10.0 mi Calm Calm - N/A   Mostly Cloudy
9:19 PM 69.8 °F - 68.0 °F 94% 29.85 in 10.0 mi SSW 9.2 mph - N/A   Mostly Cloudy
9:53 PM 70.0 °F - 66.9 °F 90% 29.84 in 10.0 mi South 5.8 mph - N/A   Mostly Cloudy
10:36 PM 69.8 °F - 66.2 °F 88% 29.86 in 10.0 mi South 8.1 mph - N/A   Mostly Cloudy
10:53 PM 69.1 °F - 66.9 °F 93% 29.85 in 10.0 mi South 9.2 mph - N/A   Scattered Clouds
11:53 PM 68.0 °F - 66.0 °F 93% 29.83 in 10.0 mi South 9.2 mph - N/A   Partly Cloudy